TVF8777 DTTA-LFLL

Flight info

Callsign TVF8777
Flight time N/A
Altitude 24000
Route TOBIB3C TOBIB A725 TANIT/N0464F340 UA725 OSMAR DCT TIVUK DCT QUENN DCT VELAD DCT UNITA DCT IXITO DCT ANAKI DCT LAGEN DCT TOP/N0426F240 DCT RONOP DCT GIGUS/N0421F230 Z40 AMVAR
Aircraft B738/M-SDE2E3FGHIRWXY/LB1

Departure

Time N/A
Airport Tunis Carthage International Airport (DTTA)

Arrival

Time 2026-05-04 16:16
Airport Lyon Saint-Exupéry Airport (LFLL)
Time Latitude Longitude Altitude Speed Heading
2026-05-04 15:51 45.10640 7.37326 36107 ft 431 kts 292°
2026-05-04 15:52 45.11152 7.35938 36112 ft 431 kts 292°
2026-05-04 15:52 45.13921 7.28470 36116 ft 430 kts 293°
2026-05-04 15:53 45.16716 7.20933 35629 ft 437 kts 293°
2026-05-04 15:53 45.18125 7.17125 35057 ft 434 kts 293°
2026-05-04 15:53 45.19524 7.13337 34401 ft 434 kts 292°
2026-05-04 15:54 45.20614 7.10384 33841 ft 433 kts 292°
2026-05-04 15:54 45.22008 7.06596 33097 ft 434 kts 292°
2026-05-04 15:54 45.23405 7.02797 32431 ft 433 kts 292°
2026-05-04 15:54 45.24795 6.99013 31761 ft 433 kts 292°
2026-05-04 15:55 45.26185 6.95216 31040 ft 435 kts 292°
2026-05-04 15:55 45.27585 6.91385 30255 ft 438 kts 292°
2026-05-04 15:55 45.28990 6.87536 29349 ft 440 kts 292°
2026-05-04 15:55 45.30384 6.83713 28461 ft 442 kts 293°
2026-05-04 15:56 45.31739 6.79996 27582 ft 445 kts 293°
2026-05-04 15:56 45.32912 6.76770 26812 ft 447 kts 293°
2026-05-04 15:56 45.33006 6.76512 26749 ft 447 kts 293°
2026-05-04 15:56 45.34436 6.72580 26077 ft 445 kts 293°
2026-05-04 15:57 45.35851 6.68687 25378 ft 443 kts 294°
2026-05-04 15:57 45.37192 6.64993 24770 ft 440 kts 294°
2026-05-04 15:57 45.38553 6.61233 24114 ft 438 kts 294°
2026-05-04 15:57 45.39900 6.57508 23444 ft 436 kts 294°
2026-05-04 15:58 45.41282 6.53678 22698 ft 434 kts 294°
2026-05-04 15:58 45.42657 6.49865 22038 ft 430 kts 294°
2026-05-04 15:58 45.44016 6.46091 21373 ft 427 kts 293°
2026-05-04 15:58 45.45359 6.42355 20734 ft 423 kts 293°
2026-05-04 15:59 45.46693 6.38640 20114 ft 419 kts 293°
2026-05-04 15:59 45.47965 6.35095 19509 ft 416 kts 293°
2026-05-04 15:59 45.49275 6.31430 18857 ft 414 kts 293°
2026-05-04 15:59 45.50576 6.27788 18208 ft 412 kts 293°
2026-05-04 16:00 45.51872 6.24158 17527 ft 409 kts 293°
2026-05-04 16:00 45.53154 6.20560 16875 ft 405 kts 293°
2026-05-04 16:00 45.54426 6.16989 16255 ft 401 kts 293°
2026-05-04 16:00 45.55685 6.13448 15655 ft 398 kts 293°
2026-05-04 16:01 45.56934 6.09932 15056 ft 396 kts 293°
2026-05-04 16:01 45.58161 6.06471 14448 ft 395 kts 293°
2026-05-04 16:01 45.59399 6.02965 13831 ft 394 kts 293°
2026-05-04 16:01 45.60629 5.99484 13138 ft 392 kts 293°
2026-05-04 16:02 45.61855 5.96018 12532 ft 388 kts 293°
2026-05-04 16:02 45.63070 5.92576 11908 ft 385 kts 293°
2026-05-04 16:02 45.65441 5.85851 11159 ft 367 kts 293°
2026-05-04 16:03 45.66568 5.82652 10974 ft 354 kts 293°
2026-05-04 16:03 45.67643 5.79597 10815 ft 341 kts 293°
2026-05-04 16:03 45.68689 5.76620 10676 ft 330 kts 292°
2026-05-04 16:03 45.69704 5.73723 10533 ft 320 kts 292°
2026-05-04 16:04 45.70684 5.70921 10310 ft 310 kts 292°
2026-05-04 16:04 45.72519 5.65679 9990 ft 279 kts 291°
2026-05-04 16:04 45.73374 5.63228 9699 ft 270 kts 291°
2026-05-04 16:05 45.74200 5.60854 9410 ft 263 kts 291°
2026-05-04 16:05 45.75004 5.58540 9154 ft 256 kts 292°
2026-05-04 16:05 45.76576 5.54004 8620 ft 256 kts 292°
2026-05-04 16:06 45.77378 5.51684 8375 ft 266 kts 292°
2026-05-04 16:06 45.79590 5.45303 7584 ft 261 kts 292°
2026-05-04 16:07 45.80643 5.42269 7229 ft 252 kts 291°
2026-05-04 16:07 45.83524 5.35858 6468 ft 267 kts 301°
2026-05-04 16:08 45.84648 5.33692 6193 ft 273 kts 303°
2026-05-04 16:08 45.88048 5.27204 5375 ft 269 kts 302°
2026-05-04 16:09 45.90092 5.22865 5116 ft 249 kts 292°
2026-05-04 16:09 45.91629 5.18738 4911 ft 224 kts 292°
2026-05-04 16:10 45.93062 5.14943 4696 ft 209 kts 285°
2026-05-04 16:11 45.93174 5.09070 3787 ft 189 kts 230°
2026-05-04 16:11 45.92147 5.08072 3438 ft 180 kts 189°
2026-05-04 16:12 45.88423 5.07459 3014 ft 176 kts 180°
2026-05-04 16:12 45.85140 5.07754 3016 ft 148 kts 175°
2026-05-04 16:13 45.83109 5.08002 2734 ft 146 kts 175°
2026-05-04 16:13 45.81080 5.08252 2360 ft 148 kts 175°
2026-05-04 16:14 45.79022 5.08505 1951 ft 148 kts 175°
2026-05-04 16:14 45.76945 5.08761 1519 ft 151 kts 174°
2026-05-04 16:15 45.73808 5.09147 878 ft 150 kts 174°
2026-05-04 16:16 45.72195 5.09324 810 ft 48 kts 186°
2026-05-04 16:16 45.71948 5.09185 812 ft 5 kts 207°
2026-05-04 16:17 45.71825 5.09163 813 ft 10 kts 175°
2026-05-04 16:18 45.71640 5.09149 812 ft 9 kts 229°
2026-05-04 16:18 45.71628 5.09065 814 ft 9 kts 263°
2026-05-04 16:19 45.71609 5.08764 813 ft 12 kts 263°
2026-05-04 16:19 45.71598 5.08543 810 ft 11 kts 292°
2026-05-04 16:20 45.71688 5.08370 812 ft 0 kts 254°
2026-05-04 16:20 45.71676 5.08299 813 ft 11 kts 262°
2026-05-04 16:21 45.71638 5.08045 813 ft 7 kts 193°
2026-05-04 16:22 45.71625 5.07926 814 ft 6 kts 278°
2026-05-04 16:22 45.71627 5.07908 814 ft 0 kts 278°